Time,TemperatureF,DewpointF,PressureIn,WindDirection,WindDirectionDegrees,WindSpeedMPH,WindSpeedGustMPH,Humidity,HourlyPrecipIn,Conditions,Clouds,dailyrainin,SoftwareType,DateUTC
2013-02-28 00:00:00,36.8,31.8,29.90,NNE,23,0.0,0.0,82,0.00,,,0.02,WUHU216HW,2013-02-28 05:00:00,
2013-02-28 00:05:00,36.8,31.8,29.90,NNE,23,0.0,0.0,82,0.00,,,0.00,WUHU216HW,2013-02-28 05:05:00,
2013-02-28 00:10:00,36.6,31.6,29.90,North,0,0.0,0.0,82,0.00,,,0.00,WUHU216HW,2013-02-28 05:10:00,
2013-02-28 00:15:00,36.6,31.6,29.90,NNW,338,0.0,0.0,82,0.00,,,0.00,WUHU216HW,2013-02-28 05:15:00,
2013-02-28 00:20:00,36.5,31.7,29.90,NW,315,0.0,0.0,83,0.00,,,0.00,WUHU216HW,2013-02-28 05:20:00,
2013-02-28 00:25:00,36.5,31.7,29.90,NW,315,0.0,0.0,83,0.00,,,0.00,WUHU216HW,2013-02-28 05:25:00,
2013-02-28 00:30:00,36.3,31.6,29.90,NNW,338,0.0,0.0,83,0.00,,,0.00,WUHU216HW,2013-02-28 05:30:00,
2013-02-28 00:35:00,36.3,31.6,29.90,NE,45,0.0,0.0,83,0.00,,,0.00,WUHU216HW,2013-02-28 05:35:00,
2013-02-28 00:40:00,36.3,31.6,29.90,NE,45,0.0,0.0,83,0.00,,,0.00,WUHU216HW,2013-02-28 05:40:00,
2013-02-28 00:45:00,36.3,31.6,29.90,North,0,0.0,0.0,83,0.00,,,0.00,WUHU216HW,2013-02-28 05:45:00,
2013-02-28 00:50:00,36.1,31.4,29.90,NNW,338,0.0,0.0,83,0.00,,,0.00,WUHU216HW,2013-02-28 05:50:00,
2013-02-28 00:55:00,36.1,31.4,29.90,NW,315,0.0,0.0,83,0.00,,,0.00,WUHU216HW,2013-02-28 05:55:00,
2013-02-28 01:00:00,35.9,31.2,29.91,NE,45,0.0,0.0,83,0.00,,,0.00,WUHU216HW,2013-02-28 06:00:00,
2013-02-28 01:05:00,35.7,31.0,29.90,North,0,0.0,0.0,83,0.00,,,0.00,WUHU216HW,2013-02-28 06:05:00,
2013-02-28 01:10:00,35.7,31.0,29.91,North,0,0.0,0.0,83,0.00,,,0.00,WUHU216HW,2013-02-28 06:10:00,
2013-02-28 01:15:00,35.6,30.5,29.91,NE,45,0.0,0.0,82,0.00,,,0.00,WUHU216HW,2013-02-28 06:15:00,
2013-02-28 01:20:00,35.4,30.4,29.90,NE,45,0.0,0.0,82,0.00,,,0.00,WUHU216HW,2013-02-28 06:20:00,
2013-02-28 01:25:00,35.4,30.4,29.90,NE,45,0.0,0.0,82,0.00,,,0.00,WUHU216HW,2013-02-28 06:25:00,
2013-02-28 01:30:00,35.2,30.2,29.90,NE,45,0.0,0.0,82,0.00,,,0.00,WUHU216HW,2013-02-28 06:30:00,
2013-02-28 01:35:00,35.2,30.2,29.90,NE,45,0.0,0.0,82,0.00,,,0.00,WUHU216HW,2013-02-28 06:35:00,
2013-02-28 01:40:00,35.2,30.2,29.89,NE,45,0.0,0.0,82,0.00,,,0.00,WUHU216HW,2013-02-28 06:40:00,
2013-02-28 01:45:00,35.0,30.0,29.89,NE,45,0.0,0.0,82,0.00,,,0.00,WUHU216HW,2013-02-28 06:45:00,
2013-02-28 01:50:00,34.8,29.5,29.90,NE,45,0.0,0.0,81,0.00,,,0.00,WUHU216HW,2013-02-28 06:50:00,
2013-02-28 01:55:00,34.8,29.5,29.89,NE,45,0.0,0.0,81,0.00,,,0.00,WUHU216HW,2013-02-28 06:55:00,
2013-02-28 02:00:00,34.8,29.5,29.89,East,90,0.0,0.0,81,0.00,,,0.00,WUHU216HW,2013-02-28 07:00:00,
2013-02-28 02:05:00,34.7,29.4,29.89,ESE,113,0.0,0.0,81,0.00,,,0.00,WUHU216HW,2013-02-28 07:05:00,
2013-02-28 02:10:00,34.7,29.1,29.89,ESE,113,0.0,0.0,80,0.00,,,0.00,WUHU216HW,2013-02-28 07:10:00,
2013-02-28 02:15:00,34.5,28.9,29.88,ESE,113,0.0,0.0,80,0.00,,,0.00,WUHU216HW,2013-02-28 07:15:00,
2013-02-28 02:20:00,34.5,28.9,29.88,WNW,293,0.0,0.0,80,0.00,,,0.00,WUHU216HW,2013-02-28 07:20:00,
2013-02-28 02:25:00,34.5,28.9,29.88,WNW,293,0.0,0.0,80,0.00,,,0.00,WUHU216HW,2013-02-28 07:25:00,
2013-02-28 02:30:00,34.3,28.7,29.88,WNW,293,0.0,0.0,80,0.00,,,0.00,WUHU216HW,2013-02-28 07:30:00,
2013-02-28 02:35:00,34.3,28.7,29.88,NNW,338,0.0,4.2,80,0.00,,,0.00,WUHU216HW,2013-02-28 07:35:00,
2013-02-28 02:40:00,34.3,28.7,29.88,NNE,23,0.0,4.2,80,0.00,,,0.00,WUHU216HW,2013-02-28 07:40:00,
2013-02-28 02:45:00,34.3,28.7,29.88,NNW,338,0.0,0.0,80,0.00,,,0.00,WUHU216HW,2013-02-28 07:45:00,
2013-02-28 02:50:00,34.3,28.4,29.88,NNW,338,0.0,0.0,79,0.00,,,0.00,WUHU216HW,2013-02-28 07:50:00,
2013-02-28 02:55:00,34.5,28.6,29.88,NNW,338,3.8,3.8,79,0.00,,,0.00,WUHU216HW,2013-02-28 07:55:00,
2013-02-28 03:00:00,34.5,28.2,29.87,NNW,338,0.0,3.8,78,0.00,,,0.00,WUHU216HW,2013-02-28 08:00:00,
2013-02-28 03:05:00,34.5,28.2,29.88,North,0,0.0,3.8,78,0.00,,,0.00,WUHU216HW,2013-02-28 08:05:00,
2013-02-28 03:10:00,34.5,28.2,29.87,NNW,338,3.3,3.3,78,0.00,,,0.00,WUHU216HW,2013-02-28 08:10:00,
2013-02-28 03:15:00,34.5,27.9,29.88,NW,315,0.0,4.9,77,0.00,,,0.00,WUHU216HW,2013-02-28 08:15:00,
2013-02-28 03:20:00,34.5,27.9,29.87,West,270,0.0,4.9,77,0.00,,,0.00,WUHU216HW,2013-02-28 08:20:00,
2013-02-28 03:25:00,34.5,27.9,29.87,NW,315,0.0,2.0,77,0.00,,,0.00,WUHU216HW,2013-02-28 08:25:00,
2013-02-28 03:30:00,34.5,27.9,29.87,NNW,338,2.2,2.2,77,0.00,,,0.00,WUHU216HW,2013-02-28 08:30:00,
2013-02-28 03:35:00,34.5,27.9,29.87,West,270,0.0,2.2,77,0.00,,,0.00,WUHU216HW,2013-02-28 08:35:00,
2013-02-28 03:40:00,34.3,27.7,29.87,NNW,338,0.0,0.0,77,0.00,,,0.00,WUHU216HW,2013-02-28 08:40:00,
2013-02-28 03:45:00,34.5,27.9,29.86,West,270,0.0,1.5,77,0.00,,,0.00,WUHU216HW,2013-02-28 08:45:00,
2013-02-28 03:50:00,34.3,27.7,29.86,NW,315,0.0,1.5,77,0.00,,,0.00,WUHU216HW,2013-02-28 08:50:00,
2013-02-28 03:55:00,34.3,27.7,29.86,NW,315,0.0,1.3,77,0.00,,,0.00,WUHU216HW,2013-02-28 08:55:00,
2013-02-28 04:00:00,34.3,27.7,29.86,NNW,338,7.3,7.3,77,0.00,,,0.00,WUHU216HW,2013-02-28 09:00:00,
2013-02-28 04:05:00,34.3,27.4,29.86,NW,315,0.0,7.3,76,0.00,,,0.00,WUHU216HW,2013-02-28 09:05:00,
2013-02-28 04:10:00,34.5,27.6,29.87,WSW,248,0.0,0.0,76,0.00,,,0.00,WUHU216HW,2013-02-28 09:10:00,
2013-02-28 04:15:00,34.5,27.6,29.87,NNW,338,0.0,0.0,76,0.00,,,0.00,WUHU216HW,2013-02-28 09:15:00,
2013-02-28 04:20:00,34.3,27.4,29.87,NW,315,0.0,0.0,76,0.00,,,0.00,WUHU216HW,2013-02-28 09:20:00,
2013-02-28 04:25:00,34.3,27.7,29.87,North,0,0.0,0.0,77,0.00,,,0.00,WUHU216HW,2013-02-28 09:25:00,
2013-02-28 04:30:00,34.3,27.7,29.88,West,270,0.0,0.0,77,0.00,,,0.00,WUHU216HW,2013-02-28 09:30:00,
2013-02-28 04:35:00,33.9,27.7,29.87,NW,315,0.0,0.0,78,0.00,,,0.00,WUHU216HW,2013-02-28 09:35:00,
2013-02-28 04:40:00,33.8,27.5,29.88,NNW,338,0.0,0.0,78,0.00,,,0.00,WUHU216HW,2013-02-28 09:40:00,
2013-02-28 04:45:00,33.6,27.7,29.88,NW,315,0.0,0.0,79,0.00,,,0.00,WUHU216HW,2013-02-28 09:45:00,
2013-02-28 04:51:00,33.4,27.5,29.88,NW,315,0.0,0.0,79,0.00,,,0.00,WUHU216HW,2013-02-28 09:51:00,
2013-02-28 04:56:00,33.2,27.4,29.88,NW,315,5.1,5.1,79,0.00,,,0.00,WUHU216HW,2013-02-28 09:56:00,
2013-02-28 05:01:00,33.0,26.9,29.88,NNW,338,0.0,5.1,78,0.00,,,0.00,WUHU216HW,2013-02-28 10:01:00,
2013-02-28 05:06:00,33.0,26.9,29.88,NW,315,4.9,5.1,78,0.00,,,0.00,WUHU216HW,2013-02-28 10:06:00,
2013-02-28 05:11:00,33.0,26.6,29.88,NNW,338,0.0,4.9,77,0.00,,,0.00,WUHU216HW,2013-02-28 10:11:00,
2013-02-28 05:16:00,33.0,26.2,29.88,WNW,293,7.6,7.6,76,0.00,,,0.00,WUHU216HW,2013-02-28 10:16:00,
2013-02-28 05:21:00,32.9,26.1,29.88,North,0,0.0,7.6,76,0.00,,,0.00,WUHU216HW,2013-02-28 10:21:00,
2013-02-28 05:26:00,32.9,26.1,29.88,North,0,0.0,0.0,76,0.00,,,0.00,WUHU216HW,2013-02-28 10:26:00,
2013-02-28 05:31:00,32.9,26.1,29.88,SE,135,0.0,0.0,76,0.00,,,0.00,WUHU216HW,2013-02-28 10:31:00,
2013-02-28 05:36:00,32.9,25.7,29.89,NW,315,0.0,4.0,75,0.00,,,0.00,WUHU216HW,2013-02-28 10:36:00,
2013-02-28 05:41:00,32.9,25.4,29.89,NNW,338,0.0,4.2,74,0.00,,,0.00,WUHU216HW,2013-02-28 10:41:00,
2013-02-28 05:46:00,32.9,25.4,29.89,NNW,338,0.0,4.2,74,0.00,,,0.00,WUHU216HW,2013-02-28 10:46:00,
2013-02-28 05:51:00,32.9,25.4,29.89,NNW,338,0.0,0.0,74,0.00,,,0.00,WUHU216HW,2013-02-28 10:51:00,
2013-02-28 05:56:00,32.9,25.4,29.89,West,270,0.0,0.0,74,0.00,,,0.00,WUHU216HW,2013-02-28 10:56:00,
2013-02-28 06:01:00,32.9,25.4,29.89,NNW,338,0.0,0.0,74,0.00,,,0.00,WUHU216HW,2013-02-28 11:01:00,
2013-02-28 06:06:00,32.7,25.3,29.89,North,0,0.0,0.0,74,0.00,,,0.00,WUHU216HW,2013-02-28 11:06:00,
2013-02-28 06:11:00,32.7,25.3,29.89,West,270,0.0,0.0,74,0.00,,,0.00,WUHU216HW,2013-02-28 11:11:00,
2013-02-28 06:16:00,32.7,25.3,29.89,WNW,293,0.0,0.0,74,0.00,,,0.00,WUHU216HW,2013-02-28 11:16:00,
2013-02-28 06:21:00,32.7,25.3,29.89,North,0,0.0,0.0,74,0.00,,,0.00,WUHU216HW,2013-02-28 11:21:00,
2013-02-28 06:26:00,32.7,25.3,29.89,WNW,293,0.0,0.0,74,0.00,,,0.00,WUHU216HW,2013-02-28 11:26:00,
2013-02-28 06:31:00,32.7,25.3,29.89,WNW,293,0.6,0.6,74,0.00,,,0.00,WUHU216HW,2013-02-28 11:31:00,
2013-02-28 06:36:00,32.5,25.1,29.89,NNW,338,0.0,7.8,74,0.00,,,0.00,WUHU216HW,2013-02-28 11:36:00,
2013-02-28 06:41:00,32.7,25.3,29.89,NNW,338,2.2,7.8,74,0.00,,,0.00,WUHU216HW,2013-02-28 11:41:00,
2013-02-28 06:46:00,32.7,24.9,29.89,North,0,0.0,6.7,73,0.00,,,0.00,WUHU216HW,2013-02-28 11:46:00,
2013-02-28 06:51:00,32.7,24.6,29.89,NW,315,8.2,8.2,72,0.00,,,0.00,WUHU216HW,2013-02-28 11:51:00,
2013-02-28 06:56:00,32.7,24.6,29.90,NNW,338,1.3,8.2,72,0.00,,,0.00,WUHU216HW,2013-02-28 11:56:00,
2013-02-28 07:01:00,32.7,24.6,29.90,NNW,338,0.0,8.2,72,0.00,,,0.00,WUHU216HW,2013-02-28 12:01:00,
2013-02-28 07:06:00,32.5,24.8,29.90,NNW,338,0.0,5.3,73,0.00,,,0.00,WUHU216HW,2013-02-28 12:06:00,
2013-02-28 07:11:00,32.5,24.4,29.91,NNW,338,0.0,5.3,72,0.00,,,0.00,WUHU216HW,2013-02-28 12:11:00,
2013-02-28 07:16:00,32.5,24.8,29.90,NNW,338,0.0,0.0,73,0.00,,,0.00,WUHU216HW,2013-02-28 12:16:00,
2013-02-28 07:21:00,32.5,25.1,29.90,NNW,338,2.6,4.0,74,0.00,,,0.00,WUHU216HW,2013-02-28 12:21:00,
2013-02-28 07:26:00,32.3,24.9,29.90,NNW,338,0.0,4.0,74,0.00,,,0.00,WUHU216HW,2013-02-28 12:26:00,
2013-02-28 07:31:00,32.3,24.9,29.90,NNW,338,0.0,2.6,74,0.00,,,0.00,WUHU216HW,2013-02-28 12:31:00,
2013-02-28 07:36:00,32.3,25.3,29.90,WNW,293,0.0,0.0,75,0.00,,,0.00,WUHU216HW,2013-02-28 12:36:00,
2013-02-28 07:41:00,32.3,24.9,29.90,NNW,338,0.0,0.0,74,0.00,,,0.00,WUHU216HW,2013-02-28 12:41:00,
2013-02-28 07:46:00,32.3,24.9,29.91,NW,315,0.0,0.0,74,0.00,,,0.00,WUHU216HW,2013-02-28 12:46:00,
2013-02-28 07:51:00,32.3,24.9,29.91,NNW,338,0.0,0.0,74,0.00,,,0.00,WUHU216HW,2013-02-28 12:51:00,
2013-02-28 07:56:00,32.3,25.3,29.90,NNW,338,0.0,0.0,75,0.00,,,0.00,WUHU216HW,2013-02-28 12:56:00,
2013-02-28 08:01:00,32.5,25.4,29.91,NNW,338,0.0,0.0,75,0.00,,,0.00,WUHU216HW,2013-02-28 13:01:00,
2013-02-28 08:06:00,32.3,25.3,29.91,NNW,338,0.0,0.0,75,0.00,,,0.00,WUHU216HW,2013-02-28 13:06:00,
2013-02-28 08:11:00,32.3,25.3,29.91,NNW,338,0.0,0.0,75,0.00,,,0.00,WUHU216HW,2013-02-28 13:11:00,
2013-02-28 08:16:00,32.3,25.6,29.91,NNE,23,0.0,0.0,76,0.00,,,0.00,WUHU216HW,2013-02-28 13:16:00,
2013-02-28 08:21:00,32.5,25.7,29.92,NE,45,0.0,0.0,76,0.00,,,0.00,WUHU216HW,2013-02-28 13:21:00,
2013-02-28 08:26:00,32.3,25.6,29.92,NE,45,0.0,0.0,76,0.00,,,0.00,WUHU216HW,2013-02-28 13:26:00,
2013-02-28 08:31:00,32.5,25.7,29.92,NNE,23,0.0,0.0,76,0.00,,,0.00,WUHU216HW,2013-02-28 13:31:00,
2013-02-28 08:36:00,32.7,25.9,29.92,NW,315,0.0,0.0,76,0.00,,,0.00,WUHU216HW,2013-02-28 13:36:00,
2013-02-28 08:41:00,32.7,25.9,29.92,NW,315,0.0,0.0,76,0.00,,,0.00,WUHU216HW,2013-02-28 13:41:00,
2013-02-28 08:46:00,32.9,26.1,29.93,NE,45,0.0,0.0,76,0.00,,,0.00,WUHU216HW,2013-02-28 13:46:00,
2013-02-28 08:51:00,33.0,26.2,29.93,NE,45,0.0,0.0,76,0.00,,,0.00,WUHU216HW,2013-02-28 13:51:00,
2013-02-28 08:56:00,33.2,26.4,29.93,NE,45,0.0,0.0,76,0.00,,,0.00,WUHU216HW,2013-02-28 13:56:00,
2013-02-28 09:01:00,33.4,26.6,29.93,NE,45,0.0,0.0,76,0.00,,,0.00,WUHU216HW,2013-02-28 14:01:00,
2013-02-28 09:06:00,33.6,26.7,29.93,NE,45,0.0,0.0,76,0.00,,,0.00,WUHU216HW,2013-02-28 14:06:00,
2013-02-28 09:11:00,33.6,26.7,29.93,NE,45,0.0,0.0,76,0.00,,,0.00,WUHU216HW,2013-02-28 14:11:00,
2013-02-28 09:16:00,33.6,26.7,29.93,NE,45,0.0,0.0,76,0.00,,,0.00,WUHU216HW,2013-02-28 14:16:00,
2013-02-28 09:21:00,33.6,26.7,29.93,NNE,23,0.0,0.0,76,0.00,,,0.00,WUHU216HW,2013-02-28 14:21:00,
2013-02-28 09:26:00,33.6,26.4,29.93,NW,315,0.0,0.0,75,0.00,,,0.00,WUHU216HW,2013-02-28 14:26:00,
2013-02-28 09:31:00,33.6,26.4,29.93,NW,315,0.0,0.0,75,0.00,,,0.00,WUHU216HW,2013-02-28 14:31:00,
2013-02-28 09:36:00,33.8,26.2,29.94,NW,315,0.0,0.0,74,0.00,,,0.00,WUHU216HW,2013-02-28 14:36:00,
2013-02-28 09:41:00,33.9,26.4,29.94,WNW,293,0.0,0.0,74,0.00,,,0.00,WUHU216HW,2013-02-28 14:41:00,
2013-02-28 09:46:00,33.8,26.2,29.94,NNW,338,0.0,0.0,74,0.00,,,0.00,WUHU216HW,2013-02-28 14:46:00,
2013-02-28 09:51:00,33.9,26.4,29.94,NW,315,4.2,4.2,74,0.00,,,0.00,WUHU216HW,2013-02-28 14:51:00,
2013-02-28 09:56:00,34.1,26.6,29.94,NNW,338,0.0,4.2,74,0.00,,,0.00,WUHU216HW,2013-02-28 14:56:00,
2013-02-28 10:01:00,34.3,26.4,29.94,North,0,0.0,4.2,73,0.00,,,0.00,WUHU216HW,2013-02-28 15:01:00,
2013-02-28 10:06:00,34.3,26.8,29.94,WNW,293,0.0,0.0,74,0.00,,,0.00,WUHU216HW,2013-02-28 15:06:00,
2013-02-28 10:11:00,34.7,26.8,29.94,WNW,293,0.0,2.4,73,0.00,,,0.00,WUHU216HW,2013-02-28 15:11:00,
2013-02-28 10:16:00,34.8,27.0,29.93,NW,315,3.8,3.8,73,0.00,,,0.00,WUHU216HW,2013-02-28 15:16:00,
2013-02-28 10:21:00,35.2,27.0,29.93,NNE,23,0.0,3.8,72,0.00,,,0.00,WUHU216HW,2013-02-28 15:21:00,
2013-02-28 10:26:00,35.4,27.5,29.94,NW,315,0.0,2.9,73,0.00,,,0.00,WUHU216HW,2013-02-28 15:26:00,
2013-02-28 10:31:00,35.9,28.1,29.93,North,0,1.7,1.7,73,0.00,,,0.00,WUHU216HW,2013-02-28 15:31:00,
2013-02-28 10:36:00,36.3,28.1,29.93,NNW,338,0.0,1.7,72,0.00,,,0.00,WUHU216HW,2013-02-28 15:36:00,
2013-02-28 10:41:00,36.3,28.1,29.93,NW,315,0.0,0.0,72,0.00,,,0.00,WUHU216HW,2013-02-28 15:41:00,
2013-02-28 10:46:00,36.3,28.1,29.93,West,270,0.0,0.0,72,0.00,,,0.00,WUHU216HW,2013-02-28 15:46:00,
2013-02-28 10:51:00,36.1,27.6,29.93,NW,315,0.0,1.7,71,0.00,,,0.00,WUHU216HW,2013-02-28 15:51:00,
2013-02-28 10:56:00,35.7,27.2,29.94,WNW,293,0.0,1.7,71,0.00,,,0.00,WUHU216HW,2013-02-28 15:56:00,
2013-02-28 11:01:00,35.4,26.9,29.94,NNW,338,0.0,0.0,71,0.00,,,0.00,WUHU216HW,2013-02-28 16:01:00,
2013-02-28 11:06:00,35.4,27.2,29.94,NNW,338,0.0,0.0,72,0.00,,,0.00,WUHU216HW,2013-02-28 16:06:00,
2013-02-28 11:11:00,35.2,27.0,29.95,NNW,338,0.0,2.6,72,0.00,,,0.00,WUHU216HW,2013-02-28 16:11:00,
2013-02-28 11:16:00,34.8,26.8,29.95,North,0,0.0,4.9,73,0.00,,,0.00,WUHU216HW,2013-02-28 16:16:00,
2013-02-28 11:21:00,34.3,26.8,29.95,NW,315,0.0,4.9,74,0.00,,,0.00,WUHU216HW,2013-02-28 16:21:00,
2013-02-28 11:26:00,33.9,26.9,29.95,WNW,293,0.0,0.0,75,0.00,,,0.00,WUHU216HW,2013-02-28 16:26:00,
2013-02-28 11:31:00,33.6,26.4,29.95,NNW,338,0.0,3.3,75,0.00,,,0.00,WUHU216HW,2013-02-28 16:31:00,
2013-02-28 11:36:00,33.6,26.7,29.95,NNW,338,0.0,3.3,76,0.00,,,0.00,WUHU216HW,2013-02-28 16:36:00,
2013-02-28 11:41:00,33.6,26.7,29.95,WNW,293,0.0,0.0,76,0.00,,,0.00,WUHU216HW,2013-02-28 16:41:00,
2013-02-28 11:46:00,33.6,26.7,29.95,North,0,0.0,0.0,76,0.00,,,0.00,WUHU216HW,2013-02-28 16:46:00,
2013-02-28 11:51:00,33.6,26.7,29.95,NW,315,5.5,5.5,76,0.00,,,0.00,WUHU216HW,2013-02-28 16:51:00,
2013-02-28 11:56:00,33.6,26.7,29.95,NNW,338,4.2,5.5,76,0.00,,,0.00,WUHU216HW,2013-02-28 16:56:00,
2013-02-28 12:01:00,33.6,26.7,29.96,NNW,338,0.0,4.2,76,0.00,,,0.00,WUHU216HW,2013-02-28 17:01:00,
2013-02-28 12:06:00,33.8,26.9,29.96,NNW,338,0.0,4.2,76,0.00,,,0.00,WUHU216HW,2013-02-28 17:06:00,
2013-02-28 12:11:00,33.6,26.7,29.96,NNW,338,2.0,6.7,76,0.00,,,0.00,WUHU216HW,2013-02-28 17:11:00,
2013-02-28 12:16:00,33.6,26.4,29.97,NNW,338,0.0,6.7,75,0.00,,,0.00,WUHU216HW,2013-02-28 17:16:00,
2013-02-28 12:21:00,33.6,26.7,29.97,WNW,293,2.6,2.6,76,0.00,,,0.00,WUHU216HW,2013-02-28 17:21:00,
2013-02-28 12:26:00,33.6,26.4,29.97,NNW,338,0.0,2.6,75,0.00,,,0.00,WUHU216HW,2013-02-28 17:26:00,
2013-02-28 12:31:00,33.6,26.4,29.97,NNW,338,0.0,0.0,75,0.00,,,0.00,WUHU216HW,2013-02-28 17:31:00,
2013-02-28 12:36:00,33.4,26.2,29.97,NNW,338,0.0,0.0,75,0.00,,,0.00,WUHU216HW,2013-02-28 17:36:00,
2013-02-28 12:41:00,33.2,26.1,29.97,NNW,338,0.0,0.0,75,0.00,,,0.00,WUHU216HW,2013-02-28 17:41:00,
2013-02-28 12:46:00,33.0,26.2,29.97,NW,315,0.0,0.0,76,0.00,,,0.00,WUHU216HW,2013-02-28 17:46:00,
2013-02-28 12:51:00,32.7,25.9,29.97,NNW,338,0.0,0.0,76,0.00,,,0.00,WUHU216HW,2013-02-28 17:51:00,
2013-02-28 12:56:00,32.7,25.9,29.97,West,270,0.8,0.8,76,0.00,,,0.00,WUHU216HW,2013-02-28 17:56:00,
2013-02-28 13:01:00,32.7,25.9,29.97,NW,315,0.0,0.8,76,0.00,,,0.00,WUHU216HW,2013-02-28 18:01:00,
2013-02-28 13:07:00,32.7,26.2,29.97,NW,315,0.0,0.0,77,0.00,,,0.00,WUHU216HW,2013-02-28 18:07:00,
2013-02-28 13:12:00,32.7,26.2,29.97,North,0,0.0,4.9,77,0.00,,,0.00,WUHU216HW,2013-02-28 18:12:00,
2013-02-28 13:17:00,32.7,26.2,29.97,NNW,338,0.0,4.9,77,0.00,,,0.00,WUHU216HW,2013-02-28 18:17:00,
2013-02-28 13:22:00,32.7,26.2,29.97,NNW,338,0.0,0.0,77,0.00,,,0.00,WUHU216HW,2013-02-28 18:22:00,
2013-02-28 13:27:00,32.9,26.7,29.97,NNW,338,0.0,0.0,78,0.00,,,0.00,WUHU216HW,2013-02-28 18:27:00,
2013-02-28 13:32:00,33.2,27.0,29.96,West,270,0.0,0.0,78,0.00,,,0.00,WUHU216HW,2013-02-28 18:32:00,
2013-02-28 13:37:00,33.6,27.4,29.97,West,270,0.0,0.0,78,0.00,,,0.00,WUHU216HW,2013-02-28 18:37:00,
2013-02-28 13:42:00,33.9,27.7,29.96,NNW,338,0.0,0.0,78,0.00,,,0.00,WUHU216HW,2013-02-28 18:42:00,
2013-02-28 13:47:00,34.3,27.7,29.96,NNW,338,0.0,0.0,77,0.00,,,0.00,WUHU216HW,2013-02-28 18:47:00,
2013-02-28 13:52:00,34.3,27.7,29.96,North,0,0.0,0.0,77,0.00,,,0.00,WUHU216HW,2013-02-28 18:52:00,
2013-02-28 13:57:00,34.8,28.3,29.96,North,0,0.0,0.0,77,0.00,,,0.00,WUHU216HW,2013-02-28 18:57:00,
2013-02-28 14:02:00,35.4,28.8,29.96,NE,45,0.0,0.0,77,0.00,,,0.00,WUHU216HW,2013-02-28 19:02:00,
2013-02-28 14:07:00,36.1,29.5,29.96,NW,315,4.6,4.6,77,0.00,,,0.00,WUHU216HW,2013-02-28 19:07:00,
2013-02-28 14:12:00,36.3,28.9,29.96,NW,315,4.9,4.9,74,0.00,,,0.00,WUHU216HW,2013-02-28 19:12:00,
2013-02-28 14:17:00,36.6,29.1,29.96,NW,315,4.9,4.9,74,0.02,,,0.02,WUHU216HW,2013-02-28 19:17:00,
2013-02-28 14:22:00,36.6,28.5,29.95,North,0,0.0,4.9,72,0.02,,,0.02,WUHU216HW,2013-02-28 19:22:00,
2013-02-28 14:27:00,36.6,28.5,29.96,NW,315,7.3,7.3,72,0.02,,,0.02,WUHU216HW,2013-02-28 19:27:00,
2013-02-28 14:32:00,36.5,28.3,29.96,West,270,0.0,7.3,72,0.02,,,0.02,WUHU216HW,2013-02-28 19:32:00,
2013-02-28 14:37:00,36.5,28.0,29.96,WNW,293,0.0,7.3,71,0.02,,,0.02,WUHU216HW,2013-02-28 19:37:00,
2013-02-28 14:42:00,36.3,27.8,29.96,NNW,338,0.0,6.4,71,0.02,,,0.02,WUHU216HW,2013-02-28 19:42:00,
2013-02-28 14:47:00,36.3,28.1,29.96,NNW,338,0.0,6.4,72,0.02,,,0.02,WUHU216HW,2013-02-28 19:47:00,
2013-02-28 14:52:00,36.3,27.8,29.96,NW,315,0.0,0.0,71,0.02,,,0.02,WUHU216HW,2013-02-28 19:52:00,
2013-02-28 14:57:00,36.3,28.1,29.96,West,270,0.0,0.0,72,0.02,,,0.02,WUHU216HW,2013-02-28 19:57:00,
2013-02-28 15:02:00,36.5,28.3,29.96,West,270,0.0,0.0,72,0.02,,,0.02,WUHU216HW,2013-02-28 20:02:00,
2013-02-28 15:07:00,36.3,27.8,29.96,NW,315,0.0,0.0,71,0.02,,,0.02,WUHU216HW,2013-02-28 20:07:00,
2013-02-28 15:12:00,36.3,27.5,29.96,WNW,293,0.0,0.0,70,0.00,,,0.02,WUHU216HW,2013-02-28 20:12:00,
2013-02-28 15:17:00,36.1,27.3,29.97,NNW,338,0.0,0.0,70,0.00,,,0.02,WUHU216HW,2013-02-28 20:17:00,
2013-02-28 15:22:00,35.7,27.2,29.97,NNW,338,0.0,0.0,71,0.00,,,0.02,WUHU216HW,2013-02-28 20:22:00,
2013-02-28 15:27:00,35.7,27.2,29.97,NNW,338,0.0,0.0,71,0.00,,,0.02,WUHU216HW,2013-02-28 20:27:00,
2013-02-28 15:32:00,35.7,27.2,29.97,NW,315,0.0,0.0,71,0.00,,,0.02,WUHU216HW,2013-02-28 20:32:00,
2013-02-28 15:37:00,35.4,26.9,29.97,NNW,338,0.0,0.0,71,0.00,,,0.02,WUHU216HW,2013-02-28 20:37:00,
2013-02-28 15:42:00,35.4,26.9,29.98,NNW,338,0.0,0.0,71,0.00,,,0.02,WUHU216HW,2013-02-28 20:42:00,
2013-02-28 15:47:00,35.4,26.9,29.98,NNW,338,0.0,0.0,71,0.00,,,0.02,WUHU216HW,2013-02-28 20:47:00,
2013-02-28 15:52:00,35.4,26.9,29.98,NW,315,0.0,0.0,71,0.00,,,0.02,WUHU216HW,2013-02-28 20:52:00,
2013-02-28 15:57:00,35.4,26.6,29.98,NW,315,0.0,0.0,70,0.00,,,0.02,WUHU216HW,2013-02-28 20:57:00,
2013-02-28 16:02:00,35.4,26.2,29.98,NNW,338,2.4,2.4,69,0.00,,,0.02,WUHU216HW,2013-02-28 21:02:00,
2013-02-28 16:07:00,35.4,25.8,29.98,NW,315,1.3,2.4,68,0.00,,,0.02,WUHU216HW,2013-02-28 21:07:00,
2013-02-28 16:12:00,35.2,25.3,29.98,NW,315,0.0,2.4,67,0.00,,,0.02,WUHU216HW,2013-02-28 21:12:00,
2013-02-28 16:17:00,35.2,25.3,29.98,NNW,338,3.3,3.3,67,0.00,,,0.02,WUHU216HW,2013-02-28 21:17:00,
2013-02-28 16:22:00,35.0,25.1,29.99,NNW,338,0.0,3.3,67,0.00,,,0.02,WUHU216HW,2013-02-28 21:22:00,
2013-02-28 16:27:00,35.0,25.5,29.98,WNW,293,1.3,3.3,68,0.00,,,0.02,WUHU216HW,2013-02-28 21:27:00,
2013-02-28 16:32:00,34.8,24.9,29.99,NW,315,5.5,5.5,67,0.00,,,0.02,WUHU216HW,2013-02-28 21:32:00,
2013-02-28 16:37:00,34.8,24.9,29.98,NW,315,0.0,5.5,67,0.00,,,0.02,WUHU216HW,2013-02-28 21:37:00,
2013-02-28 16:42:00,34.7,24.4,29.99,NNW,338,0.0,5.8,66,0.00,,,0.02,WUHU216HW,2013-02-28 21:42:00,
2013-02-28 16:47:00,34.5,24.6,29.99,North,0,0.0,5.8,67,0.00,,,0.02,WUHU216HW,2013-02-28 21:47:00,
2013-02-28 16:52:00,34.3,24.4,29.99,WNW,293,0.0,0.0,67,0.00,,,0.02,WUHU216HW,2013-02-28 21:52:00,
2013-02-28 16:57:00,34.3,24.4,30.00,NNW,338,0.0,0.0,67,0.00,,,0.02,WUHU216HW,2013-02-28 21:57:00,
2013-02-28 17:02:00,34.3,24.8,30.00,NNW,338,0.0,0.0,68,0.00,,,0.02,WUHU216HW,2013-02-28 22:02:00,
2013-02-28 17:07:00,34.3,24.8,30.00,WNW,293,0.0,0.0,68,0.00,,,0.02,WUHU216HW,2013-02-28 22:07:00,
2013-02-28 17:12:00,34.3,24.4,30.00,NNW,338,0.0,1.3,67,0.00,,,0.02,WUHU216HW,2013-02-28 22:12:00,
2013-02-28 17:17:00,33.9,24.0,30.01,NW,315,0.0,1.3,67,0.00,,,0.02,WUHU216HW,2013-02-28 22:17:00,
2013-02-28 17:22:00,33.9,24.4,30.01,North,0,0.0,0.0,68,0.00,,,0.02,WUHU216HW,2013-02-28 22:22:00,
2013-02-28 17:27:00,33.6,23.7,30.01,NNW,338,8.0,8.0,67,0.00,,,0.02,WUHU216HW,2013-02-28 22:27:00,
2013-02-28 17:32:00,33.6,23.7,30.02,NW,315,0.0,8.0,67,0.00,,,0.02,WUHU216HW,2013-02-28 22:32:00,
2013-02-28 17:37:00,33.4,23.5,30.02,West,270,0.0,8.0,67,0.00,,,0.02,WUHU216HW,2013-02-28 22:37:00,
2013-02-28 17:42:00,33.4,23.5,30.02,NNE,23,0.0,4.2,67,0.00,,,0.02,WUHU216HW,2013-02-28 22:42:00,
2013-02-28 17:47:00,33.4,23.9,30.02,NW,315,3.5,3.5,68,0.00,,,0.02,WUHU216HW,2013-02-28 22:47:00,
2013-02-28 17:52:00,33.2,23.4,30.02,NW,315,0.0,3.5,67,0.00,,,0.02,WUHU216HW,2013-02-28 22:52:00,
2013-02-28 17:57:00,33.0,23.2,30.03,NNW,338,0.0,6.4,67,0.00,,,0.02,WUHU216HW,2013-02-28 22:57:00,
2013-02-28 18:02:00,33.0,23.2,30.03,NNW,338,0.0,6.4,67,0.00,,,0.02,WUHU216HW,2013-02-28 23:02:00,
2013-02-28 18:07:00,33.0,23.2,30.02,NW,315,10.0,10.0,67,0.00,,,0.02,WUHU216HW,2013-02-28 23:07:00,
2013-02-28 18:12:00,32.9,23.0,30.02,NW,315,0.0,10.0,67,0.00,,,0.02,WUHU216HW,2013-02-28 23:12:00,
2013-02-28 18:17:00,32.7,22.9,30.02,NNW,338,0.0,0.0,67,0.00,,,0.02,WUHU216HW,2013-02-28 23:17:00,
2013-02-28 18:22:00,32.9,23.4,30.02,NNW,338,0.0,0.0,68,0.00,,,0.02,WUHU216HW,2013-02-28 23:22:00,
2013-02-28 18:27:00,32.7,23.2,30.02,NW,315,0.0,0.0,68,0.00,,,0.02,WUHU216HW,2013-02-28 23:27:00,
2013-02-28 18:32:00,32.7,23.2,30.03,West,270,0.0,0.0,68,0.00,,,0.02,WUHU216HW,2013-02-28 23:32:00,
2013-02-28 18:37:00,32.7,23.2,30.03,NNW,338,0.0,0.0,68,0.00,,,0.02,WUHU216HW,2013-02-28 23:37:00,
2013-02-28 18:42:00,32.7,23.2,30.03,NNW,338,0.0,0.2,68,0.00,,,0.02,WUHU216HW,2013-02-28 23:42:00,
2013-02-28 18:47:00,32.7,23.2,30.03,NW,315,0.0,0.2,68,0.00,,,0.02,WUHU216HW,2013-02-28 23:47:00,
2013-02-28 18:52:00,32.7,23.2,30.03,NW,315,0.0,0.0,68,0.00,,,0.02,WUHU216HW,2013-02-28 23:52:00,
2013-02-28 18:57:00,32.7,23.6,30.03,NW,315,0.0,0.0,69,0.00,,,0.02,WUHU216HW,2013-02-28 23:57:00,
2013-02-28 19:02:00,32.5,23.4,30.03,NW,315,0.0,0.0,69,0.00,,,0.02,WUHU216HW,2013-03-01 00:02:00,
2013-02-28 19:07:00,32.5,23.4,30.04,WNW,293,0.0,0.0,69,0.00,,,0.02,WUHU216HW,2013-03-01 00:07:00,
2013-02-28 19:12:00,32.5,23.4,30.03,NW,315,0.0,0.0,69,0.00,,,0.02,WUHU216HW,2013-03-01 00:12:00,
2013-02-28 19:17:00,32.5,23.4,30.03,WNW,293,0.0,0.0,69,0.00,,,0.02,WUHU216HW,2013-03-01 00:17:00,
2013-02-28 19:22:00,32.3,23.3,30.03,NW,315,0.0,0.0,69,0.00,,,0.02,WUHU216HW,2013-03-01 00:22:00,
2013-02-28 19:27:00,32.3,23.6,30.03,NW,315,0.0,0.0,70,0.00,,,0.02,WUHU216HW,2013-03-01 00:27:00,
2013-02-28 19:32:00,32.3,23.6,30.03,NW,315,0.0,0.0,70,0.00,,,0.02,WUHU216HW,2013-03-01 00:32:00,
2013-02-28 19:37:00,32.3,23.6,30.03,NW,315,0.0,0.0,70,0.00,,,0.02,WUHU216HW,2013-03-01 00:37:00,
2013-02-28 19:42:00,32.1,23.5,30.03,NNW,338,0.0,0.0,70,0.00,,,0.02,WUHU216HW,2013-03-01 00:42:00,
2013-02-28 19:47:00,32.1,23.5,30.03,NW,315,0.0,0.0,70,0.00,,,0.02,WUHU216HW,2013-03-01 00:47:00,
2013-02-28 19:52:00,32.1,23.5,30.03,North,0,0.0,0.0,70,0.00,,,0.02,WUHU216HW,2013-03-01 00:52:00,
2013-02-28 19:57:00,32.1,23.5,30.03,North,0,0.0,0.0,70,0.00,,,0.02,WUHU216HW,2013-03-01 00:57:00,
2013-02-28 20:02:00,32.1,23.5,30.03,North,0,0.0,0.0,70,0.00,,,0.02,WUHU216HW,2013-03-01 01:02:00,
2013-02-28 20:07:00,32.1,23.5,30.02,North,0,0.0,0.0,70,0.00,,,0.02,WUHU216HW,2013-03-01 01:07:00,
2013-02-28 20:12:00,32.1,23.5,30.02,North,0,0.0,0.0,70,0.00,,,0.02,WUHU216HW,2013-03-01 01:12:00,
2013-02-28 20:17:00,32.0,23.6,30.03,North,0,0.0,0.0,71,0.00,,,0.02,WUHU216HW,2013-03-01 01:17:00,
2013-02-28 20:22:00,31.8,23.5,30.02,WSW,248,0.0,0.0,71,0.00,,,0.02,WUHU216HW,2013-03-01 01:22:00,
2013-02-28 20:27:00,31.8,23.5,30.02,NNW,338,0.0,0.0,71,0.00,,,0.02,WUHU216HW,2013-03-01 01:27:00,
2013-02-28 20:32:00,31.8,23.5,30.02,NNW,338,0.0,0.0,71,0.00,,,0.02,WUHU216HW,2013-03-01 01:32:00,
2013-02-28 20:37:00,31.8,23.5,30.02,NNW,338,0.0,0.0,71,0.00,,,0.02,WUHU216HW,2013-03-01 01:37:00,
2013-02-28 20:42:00,31.8,23.8,30.02,NE,45,0.0,0.0,72,0.00,,,0.02,WUHU216HW,2013-03-01 01:42:00,
2013-02-28 20:47:00,31.8,23.8,30.02,NNW,338,0.0,0.0,72,0.00,,,0.02,WUHU216HW,2013-03-01 01:47:00,
2013-02-28 20:52:00,31.6,23.6,30.02,NNW,338,0.0,0.0,72,0.00,,,0.02,WUHU216HW,2013-03-01 01:52:00,
2013-02-28 20:57:00,31.6,23.6,30.02,North,0,0.0,0.0,72,0.00,,,0.02,WUHU216HW,2013-03-01 01:57:00,
2013-02-28 21:02:00,31.6,23.6,30.03,NW,315,0.0,5.8,72,0.00,,,0.02,WUHU216HW,2013-03-01 02:02:00,
2013-02-28 21:07:00,31.6,23.6,30.03,NNW,338,0.0,5.8,72,0.00,,,0.02,WUHU216HW,2013-03-01 02:07:00,
2013-02-28 21:12:00,31.6,23.6,30.03,NW,315,0.0,0.0,72,0.00,,,0.02,WUHU216HW,2013-03-01 02:12:00,
2013-02-28 21:17:00,31.6,23.6,30.03,North,0,0.0,0.0,72,0.00,,,0.02,WUHU216HW,2013-03-01 02:17:00,
2013-02-28 21:22:00,31.6,23.6,30.04,NNW,338,0.0,4.6,72,0.00,,,0.02,WUHU216HW,2013-03-01 02:22:00,
2013-02-28 21:27:00,31.4,23.1,30.03,WNW,293,0.0,4.6,71,0.00,,,0.02,WUHU216HW,2013-03-01 02:27:00,
2013-02-28 21:32:00,31.2,23.2,30.03,NW,315,0.0,0.0,72,0.00,,,0.02,WUHU216HW,2013-03-01 02:32:00,
2013-02-28 21:37:00,31.2,23.2,30.03,NNW,338,2.2,2.2,72,0.00,,,0.02,WUHU216HW,2013-03-01 02:37:00,
2013-02-28 21:43:00,31.2,23.2,30.03,NNW,338,2.2,2.2,72,0.00,,,0.02,WUHU216HW,2013-03-01 02:43:00,
2013-02-28 21:48:00,31.2,23.2,30.04,NNW,338,3.1,3.1,72,0.00,,,0.02,WUHU216HW,2013-03-01 02:48:00,
2013-02-28 21:53:00,31.2,23.2,30.03,NNW,338,0.0,3.1,72,0.00,,,0.02,WUHU216HW,2013-03-01 02:53:00,
2013-02-28 21:58:00,31.2,23.6,30.03,NW,315,0.0,0.0,73,0.00,,,0.02,WUHU216HW,2013-03-01 02:58:00,
2013-02-28 22:03:00,31.2,23.6,30.03,West,270,2.4,2.4,73,0.00,,,0.02,WUHU216HW,2013-03-01 03:03:00,
2013-02-28 22:08:00,31.2,23.6,30.03,NNW,338,5.5,5.5,73,0.00,,,0.02,WUHU216HW,2013-03-01 03:08:00,
2013-02-28 22:13:00,31.2,23.6,30.03,NNW,338,4.4,5.5,73,0.00,,,0.02,WUHU216HW,2013-03-01 03:13:00,
2013-02-28 22:18:00,31.2,23.6,30.03,North,0,0.0,5.5,73,0.00,,,0.02,WUHU216HW,2013-03-01 03:18:00,
2013-02-28 22:23:00,31.2,23.6,30.03,South,180,0.0,4.4,73,0.00,,,0.02,WUHU216HW,2013-03-01 03:23:00,
2013-02-28 22:28:00,31.2,23.6,30.03,NNW,338,3.5,3.5,73,0.00,,,0.02,WUHU216HW,2013-03-01 03:28:00,
2013-02-28 22:33:00,31.2,23.6,30.03,WNW,293,5.1,5.1,73,0.00,,,0.02,WUHU216HW,2013-03-01 03:33:00,
2013-02-28 22:38:00,31.1,23.4,30.03,NW,315,9.8,9.8,73,0.00,,,0.02,WUHU216HW,2013-03-01 03:38:00,
2013-02-28 22:43:00,31.1,23.4,30.03,NW,315,9.8,9.8,73,0.00,,,0.02,WUHU216HW,2013-03-01 03:43:00,
2013-02-28 22:48:00,31.1,23.7,30.04,NNE,23,1.1,9.8,74,0.00,,,0.02,WUHU216HW,2013-03-01 03:48:00,
2013-02-28 22:53:00,31.1,23.7,30.04,NNW,338,0.0,7.3,74,0.00,,,0.02,WUHU216HW,2013-03-01 03:53:00,
2013-02-28 22:58:00,31.1,23.7,30.03,NNW,338,0.0,7.3,74,0.00,,,0.02,WUHU216HW,2013-03-01 03:58:00,
2013-02-28 23:03:00,31.1,24.0,30.03,North,0,0.0,0.0,75,0.00,,,0.02,WUHU216HW,2013-03-01 04:03:00,
2013-02-28 23:08:00,31.1,24.0,30.03,NW,315,0.0,0.0,75,0.00,,,0.02,WUHU216HW,2013-03-01 04:08:00,
2013-02-28 23:13:00,31.1,24.0,30.02,NNW,338,0.0,3.8,75,0.00,,,0.02,WUHU216HW,2013-03-01 04:13:00,
2013-02-28 23:18:00,31.1,24.0,30.02,NW,315,0.0,3.8,75,0.00,,,0.02,WUHU216HW,2013-03-01 04:18:00,
2013-02-28 23:23:00,31.1,24.0,30.03,NNW,338,0.0,4.0,75,0.00,,,0.02,WUHU216HW,2013-03-01 04:23:00,
2013-02-28 23:28:00,31.1,24.0,30.03,NNW,338,0.0,4.0,75,0.00,,,0.02,WUHU216HW,2013-03-01 04:28:00,
2013-02-28 23:33:00,31.1,24.0,30.03,North,0,0.0,0.0,75,0.00,,,0.02,WUHU216HW,2013-03-01 04:33:00,
2013-02-28 23:38:00,31.1,24.0,30.03,NW,315,0.0,0.0,75,0.00,,,0.02,WUHU216HW,2013-03-01 04:38:00,
2013-02-28 23:43:00,31.1,24.0,30.03,NNW,338,0.0,0.0,75,0.00,,,0.02,WUHU216HW,2013-03-01 04:43:00,
2013-02-28 23:48:00,31.1,24.0,30.03,NW,315,0.0,0.0,75,0.00,,,0.02,WUHU216HW,2013-03-01 04:48:00,
2013-02-28 23:53:00,31.1,24.0,30.03,NNW,338,0.0,0.0,75,0.00,,,0.02,WUHU216HW,2013-03-01 04:53:00,
2013-02-28 23:58:00,31.1,24.0,30.03,NNW,338,0.0,0.0,75,0.00,,,0.02,WUHU216HW,2013-03-01 04:58:00,